Погода в Билютай

Россия / Республика Бурятия     50°46′39″N   107°05′52″E
темп.,
°C
ветер,
м/с
пор.,
м/с
влажн.,
%
обл.,
%
осадки,
мм/ч
давл.,
гПа
погр.,
м
20 апреля, вт
вт2023:00+7юв3440100 0.0 100546
02:00+6ююв3341100 0.0 100440
05:00+4ю3246100 0.0 100428
08:00+6с5945100 0.0 1008577
11:00+9с4542100 0.0 1008827
14:00+13ссв4333100 0.0 10051134
17:00+13с55330 0.0 10031186
20:00+6ссв7114654 0.0 1008681
21 апреля, ср
ср2123:00+2ссв49584 0.0 1009469
02:00−1с497038 0.0 1010431
05:00−2с39795 0.0 1013432
08:00+1с486259 0.0 1014812
11:00+3с7843100 0.0 10151236
14:00+5с674099 0.0 10141577
17:00+4с784099 0.0 10161558
20:00−1ссв81249100 0.0 10201033
22 апреля, чт
чт2223:00−1с6114695 0.0 10231121
02:00−2ссв3847100 0.1 10251090
05:00−3с385760 0.0 1027788
08:00−2ссв474659 0.0 1028916
11:00+2ссв5629100 0.0 10271251
14:00+3ссв6626100 0.3 10271660
17:00+2с7837100 0.1 10281362
20:00−3с41092100 1.8 1034596
23 апреля, пт
пт2323:00−4с4987100 1.9 1036590
02:00−4с4982100 2.6 1038518
05:00−4ссв4975100 0.3 1039535
08:00−3ссв5865100 0.3 1041543
11:00+1ссв5661100 0.0 1041975
14:00+4св5657100 0.0 10391401
17:00+5всв5656100 0.0 10381145
20:00+2всв2673100 0.0 1039214
24 апреля, сб
сб2423:000ссв2597100 1.4 1041255
02:000с2497100 2.8 1039166
05:000с1299100 1.3 1039108
08:00+1св019497 1.4 1039241
11:00+4вюв1185100 0.0 1037501
14:00+7юв2272100 0.0 1033809
17:00+9ю2270100 0.0 1029733
20:00+4зсз1194100 0.0 102910